Date_Time,Julian_Date,Latitude,Longitude,Instrument_Depth,Water_Temperature
(yyyy-mm-dd hh:mn:ss UTC),(JD),(+ deg. North),(+ deg. East),(m),(deg. C)
1983-08-10 18:00:00 UTC,2445557.250000,28.7467,-95.2267,0206,26.3000
1983-08-10 18:30:00 UTC,2445557.270833,28.7467,-95.2267,0206,26.4000
1983-08-10 19:00:00 UTC,2445557.291667,28.7467,-95.2267,0206,26.5000
1983-08-10 19:30:00 UTC,2445557.312500,28.7467,-95.2267,0206,26.5000
1983-08-10 20:00:00 UTC,2445557.333333,28.7467,-95.2267,0206,26.5000
1983-08-10 20:30:00 UTC,2445557.354167,28.7467,-95.2267,0206,26.5000
1983-08-10 21:00:00 UTC,2445557.375000,28.7467,-95.2267,0206,26.6000
1983-08-10 21:30:00 UTC,2445557.395833,28.7467,-95.2267,0206,26.6000
1983-08-10 22:00:00 UTC,2445557.416667,28.7467,-95.2267,0206,26.5000
1983-08-10 22:30:00 UTC,2445557.437500,28.7467,-95.2267,0206,26.5000
1983-08-10 23:00:00 UTC,2445557.458333,28.7467,-95.2267,0206,26.5000
1983-08-10 23:30:00 UTC,2445557.479167,28.7467,-95.2267,0206,26.5000
1983-08-11 00:00:00 UTC,2445557.500000,28.7467,-95.2267,0206,26.4000
1983-08-11 00:30:00 UTC,2445557.520833,28.7467,-95.2267,0206,26.4000
1983-08-11 01:00:00 UTC,2445557.541667,28.7467,-95.2267,0206,26.5000
1983-08-11 01:30:00 UTC,2445557.562500,28.7467,-95.2267,0206,26.5000
1983-08-11 02:00:00 UTC,2445557.583333,28.7467,-95.2267,0206,26.5000
1983-08-11 02:30:00 UTC,2445557.604167,28.7467,-95.2267,0206,26.4000
1983-08-11 03:00:00 UTC,2445557.625000,28.7467,-95.2267,0206,26.4000
1983-08-11 03:30:00 UTC,2445557.645833,28.7467,-95.2267,0206,26.3000
1983-08-11 04:00:00 UTC,2445557.666667,28.7467,-95.2267,0206,26.3000
1983-08-11 04:30:00 UTC,2445557.687500,28.7467,-95.2267,0206,26.2000
1983-08-11 05:00:00 UTC,2445557.708333,28.7467,-95.2267,0206,26.2000
1983-08-11 05:30:00 UTC,2445557.729167,28.7467,-95.2267,0206,26.2000
1983-08-11 06:00:00 UTC,2445557.750000,28.7467,-95.2267,0206,26.2000
1983-08-11 06:30:00 UTC,2445557.770833,28.7467,-95.2267,0206,26.1000
1983-08-11 07:00:00 UTC,2445557.791667,28.7467,-95.2267,0206,26.1000
1983-08-11 07:30:00 UTC,2445557.812500,28.7467,-95.2267,0206,26.1000
1983-08-11 08:00:00 UTC,2445557.833333,28.7467,-95.2267,0206,26.2000
1983-08-11 08:30:00 UTC,2445557.854167,28.7467,-95.2267,0206,26.2000
1983-08-11 09:00:00 UTC,2445557.875000,28.7467,-95.2267,0206,26.3000
1983-08-11 09:30:00 UTC,2445557.895833,28.7467,-95.2267,0206,26.3000
1983-08-11 10:00:00 UTC,2445557.916667,28.7467,-95.2267,0206,26.3000
1983-08-11 10:30:00 UTC,2445557.937500,28.7467,-95.2267,0206,26.3000
1983-08-11 11:00:00 UTC,2445557.958333,28.7467,-95.2267,0206,26.3000
1983-08-11 11:30:00 UTC,2445557.979167,28.7467,-95.2267,0206,26.3000
1983-08-11 12:00:00 UTC,2445558.000000,28.7467,-95.2267,0206,26.3000
1983-08-11 12:30:00 UTC,2445558.020833,28.7467,-95.2267,0206,26.3000
1983-08-11 13:00:00 UTC,2445558.041667,28.7467,-95.2267,0206,26.3000
1983-08-11 13:30:00 UTC,2445558.062500,28.7467,-95.2267,0206,26.3000
1983-08-11 14:00:00 UTC,2445558.083333,28.7467,-95.2267,0206,26.3000
1983-08-11 14:30:00 UTC,2445558.104167,28.7467,-95.2267,0206,26.4000
1983-08-11 15:00:00 UTC,2445558.125000,28.7467,-95.2267,0206,26.4000
1983-08-11 15:30:00 UTC,2445558.145833,28.7467,-95.2267,0206,26.4000
1983-08-11 16:00:00 UTC,2445558.166667,28.7467,-95.2267,0206,26.4000
1983-08-11 16:30:00 UTC,2445558.187500,28.7467,-95.2267,0206,26.4000
1983-08-11 17:00:00 UTC,2445558.208333,28.7467,-95.2267,0206,26.4000
1983-08-11 17:30:00 UTC,2445558.229167,28.7467,-95.2267,0206,26.5000
1983-08-11 18:00:00 UTC,2445558.250000,28.7467,-95.2267,0206,26.5000
1983-08-11 18:30:00 UTC,2445558.270833,28.7467,-95.2267,0206,26.5000
1983-08-11 19:00:00 UTC,2445558.291667,28.7467,-95.2267,0206,26.4000
1983-08-11 19:30:00 UTC,2445558.312500,28.7467,-95.2267,0206,26.4000
1983-08-11 20:00:00 UTC,2445558.333333,28.7467,-95.2267,0206,26.4000
1983-08-11 20:30:00 UTC,2445558.354167,28.7467,-95.2267,0206,26.4000
1983-08-11 21:00:00 UTC,2445558.375000,28.7467,-95.2267,0206,26.4000
1983-08-11 21:30:00 UTC,2445558.395833,28.7467,-95.2267,0206,26.5000
1983-08-11 22:00:00 UTC,2445558.416667,28.7467,-95.2267,0206,26.6000
1983-08-11 22:30:00 UTC,2445558.437500,28.7467,-95.2267,0206,26.7000
1983-08-11 23:00:00 UTC,2445558.458333,28.7467,-95.2267,0206,26.8000
1983-08-11 23:30:00 UTC,2445558.479167,28.7467,-95.2267,0206,26.8000
1983-08-12 00:00:00 UTC,2445558.500000,28.7467,-95.2267,0206,26.8000
1983-08-12 00:30:00 UTC,2445558.520833,28.7467,-95.2267,0206,26.8000
1983-08-12 01:00:00 UTC,2445558.541667,28.7467,-95.2267,0206,26.8000
1983-08-12 01:30:00 UTC,2445558.562500,28.7467,-95.2267,0206,26.7000
1983-08-12 02:00:00 UTC,2445558.583333,28.7467,-95.2267,0206,26.6000
1983-08-12 02:30:00 UTC,2445558.604167,28.7467,-95.2267,0206,26.5000
1983-08-12 03:00:00 UTC,2445558.625000,28.7467,-95.2267,0206,26.5000
1983-08-12 03:30:00 UTC,2445558.645833,28.7467,-95.2267,0206,26.5000
1983-08-12 04:00:00 UTC,2445558.666667,28.7467,-95.2267,0206,26.5000
1983-08-12 04:30:00 UTC,2445558.687500,28.7467,-95.2267,0206,26.5000
1983-08-12 05:00:00 UTC,2445558.708333,28.7467,-95.2267,0206,26.6000
1983-08-12 05:30:00 UTC,2445558.729167,28.7467,-95.2267,0206,26.6000
1983-08-12 06:00:00 UTC,2445558.750000,28.7467,-95.2267,0206,26.5000
1983-08-12 06:30:00 UTC,2445558.770833,28.7467,-95.2267,0206,26.5000
1983-08-12 07:00:00 UTC,2445558.791667,28.7467,-95.2267,0206,26.5000
1983-08-12 07:30:00 UTC,2445558.812500,28.7467,-95.2267,0206,26.5000
1983-08-12 08:00:00 UTC,2445558.833333,28.7467,-95.2267,0206,26.5000
1983-08-12 08:30:00 UTC,2445558.854167,28.7467,-95.2267,0206,26.5000
1983-08-12 09:00:00 UTC,2445558.875000,28.7467,-95.2267,0206,26.5000
1983-08-12 09:30:00 UTC,2445558.895833,28.7467,-95.2267,0206,26.5000
1983-08-12 10:00:00 UTC,2445558.916667,28.7467,-95.2267,0206,26.6000
1983-08-12 10:30:00 UTC,2445558.937500,28.7467,-95.2267,0206,26.6000
1983-08-12 11:00:00 UTC,2445558.958333,28.7467,-95.2267,0206,26.6000
1983-08-12 11:30:00 UTC,2445558.979167,28.7467,-95.2267,0206,26.6000
1983-08-12 12:00:00 UTC,2445559.000000,28.7467,-95.2267,0206,26.6000
1983-08-12 12:30:00 UTC,2445559.020833,28.7467,-95.2267,0206,26.6000
1983-08-12 13:00:00 UTC,2445559.041667,28.7467,-95.2267,0206,26.6000
1983-08-12 13:30:00 UTC,2445559.062500,28.7467,-95.2267,0206,26.6000
1983-08-12 14:00:00 UTC,2445559.083333,28.7467,-95.2267,0206,26.6000
1983-08-12 14:30:00 UTC,2445559.104167,28.7467,-95.2267,0206,26.6000
1983-08-12 15:00:00 UTC,2445559.125000,28.7467,-95.2267,0206,26.6000
1983-08-12 15:30:00 UTC,2445559.145833,28.7467,-95.2267,0206,26.6000
1983-08-12 16:00:00 UTC,2445559.166667,28.7467,-95.2267,0206,26.6000
1983-08-12 16:30:00 UTC,2445559.187500,28.7467,-95.2267,0206,26.6000
1983-08-12 17:00:00 UTC,2445559.208333,28.7467,-95.2267,0206,26.6000
1983-08-12 17:30:00 UTC,2445559.229167,28.7467,-95.2267,0206,26.6000
1983-08-12 18:00:00 UTC,2445559.250000,28.7467,-95.2267,0206,26.6000
1983-08-12 18:30:00 UTC,2445559.270833,28.7467,-95.2267,0206,26.6000
1983-08-12 19:00:00 UTC,2445559.291667,28.7467,-95.2267,0206,26.6000
1983-08-12 19:30:00 UTC,2445559.312500,28.7467,-95.2267,0206,26.6000
1983-08-12 20:00:00 UTC,2445559.333333,28.7467,-95.2267,0206,26.6000
1983-08-12 20:30:00 UTC,2445559.354167,28.7467,-95.2267,0206,26.7000
1983-08-12 21:00:00 UTC,2445559.375000,28.7467,-95.2267,0206,26.7000
1983-08-12 21:30:00 UTC,2445559.395833,28.7467,-95.2267,0206,26.7000
1983-08-12 22:00:00 UTC,2445559.416667,28.7467,-95.2267,0206,26.7000
1983-08-12 22:30:00 UTC,2445559.437500,28.7467,-95.2267,0206,26.8000
1983-08-12 23:00:00 UTC,2445559.458333,28.7467,-95.2267,0206,26.8000
1983-08-12 23:30:00 UTC,2445559.479167,28.7467,-95.2267,0206,26.7000
1983-08-13 00:00:00 UTC,2445559.500000,28.7467,-95.2267,0206,26.7000
1983-08-13 00:30:00 UTC,2445559.520833,28.7467,-95.2267,0206,26.6000
1983-08-13 01:00:00 UTC,2445559.541667,28.7467,-95.2267,0206,26.5000
1983-08-13 01:30:00 UTC,2445559.562500,28.7467,-95.2267,0206,26.4000
1983-08-13 02:00:00 UTC,2445559.583333,28.7467,-95.2267,0206,26.4000
1983-08-13 02:30:00 UTC,2445559.604167,28.7467,-95.2267,0206,26.3000
1983-08-13 03:00:00 UTC,2445559.625000,28.7467,-95.2267,0206,26.3000
1983-08-13 03:30:00 UTC,2445559.645833,28.7467,-95.2267,0206,26.2000
1983-08-13 04:00:00 UTC,2445559.666667,28.7467,-95.2267,0206,26.2000
1983-08-13 04:30:00 UTC,2445559.687500,28.7467,-95.2267,0206,26.1000
1983-08-13 05:00:00 UTC,2445559.708333,28.7467,-95.2267,0206,26.1000
1983-08-13 05:30:00 UTC,2445559.729167,28.7467,-95.2267,0206,26.1000
1983-08-13 06:00:00 UTC,2445559.750000,28.7467,-95.2267,0206,26.1000
1983-08-13 06:30:00 UTC,2445559.770833,28.7467,-95.2267,0206,26.0000
1983-08-13 07:00:00 UTC,2445559.791667,28.7467,-95.2267,0206,26.0000
1983-08-13 07:30:00 UTC,2445559.812500,28.7467,-95.2267,0206,26.0000
1983-08-13 08:00:00 UTC,2445559.833333,28.7467,-95.2267,0206,26.0000
1983-08-13 08:30:00 UTC,2445559.854167,28.7467,-95.2267,0206,26.0000
1983-08-13 09:00:00 UTC,2445559.875000,28.7467,-95.2267,0206,26.1000
1983-08-13 09:30:00 UTC,2445559.895833,28.7467,-95.2267,0206,26.1000
1983-08-13 10:00:00 UTC,2445559.916667,28.7467,-95.2267,0206,26.2000
1983-08-13 10:30:00 UTC,2445559.937500,28.7467,-95.2267,0206,26.3000
1983-08-13 11:00:00 UTC,2445559.958333,28.7467,-95.2267,0206,26.3000
1983-08-13 11:30:00 UTC,2445559.979167,28.7467,-95.2267,0206,26.4000
1983-08-13 12:00:00 UTC,2445560.000000,28.7467,-95.2267,0206,26.5000
1983-08-13 12:30:00 UTC,2445560.020833,28.7467,-95.2267,0206,26.5000
1983-08-13 13:00:00 UTC,2445560.041667,28.7467,-95.2267,0206,26.5000
1983-08-13 13:30:00 UTC,2445560.062500,28.7467,-95.2267,0206,26.5000
1983-08-13 14:00:00 UTC,2445560.083333,28.7467,-95.2267,0206,26.5000
1983-08-13 14:30:00 UTC,2445560.104167,28.7467,-95.2267,0206,26.5000
1983-08-13 15:00:00 UTC,2445560.125000,28.7467,-95.2267,0206,26.5000
1983-08-13 15:30:00 UTC,2445560.145833,28.7467,-95.2267,0206,26.5000
1983-08-13 16:00:00 UTC,2445560.166667,28.7467,-95.2267,0206,26.5000
1983-08-13 16:30:00 UTC,2445560.187500,28.7467,-95.2267,0206,26.5000
1983-08-13 17:00:00 UTC,2445560.208333,28.7467,-95.2267,0206,26.5000
1983-08-13 17:30:00 UTC,2445560.229167,28.7467,-95.2267,0206,26.5000
1983-08-13 18:00:00 UTC,2445560.250000,28.7467,-95.2267,0206,26.5000
1983-08-13 18:30:00 UTC,2445560.270833,28.7467,-95.2267,0206,26.5000
1983-08-13 19:00:00 UTC,2445560.291667,28.7467,-95.2267,0206,26.5000
1983-08-13 19:30:00 UTC,2445560.312500,28.7467,-95.2267,0206,26.5000
1983-08-13 20:00:00 UTC,2445560.333333,28.7467,-95.2267,0206,26.5000
1983-08-13 20:30:00 UTC,2445560.354167,28.7467,-95.2267,0206,26.5000
1983-08-13 21:00:00 UTC,2445560.375000,28.7467,-95.2267,0206,26.5000
1983-08-13 21:30:00 UTC,2445560.395833,28.7467,-95.2267,0206,26.4000
1983-08-13 22:00:00 UTC,2445560.416667,28.7467,-95.2267,0206,26.4000
1983-08-13 22:30:00 UTC,2445560.437500,28.7467,-95.2267,0206,26.4000
1983-08-13 23:00:00 UTC,2445560.458333,28.7467,-95.2267,0206,26.4000
1983-08-13 23:30:00 UTC,2445560.479167,28.7467,-95.2267,0206,26.4000
1983-08-14 00:00:00 UTC,2445560.500000,28.7467,-95.2267,0206,26.3000
1983-08-14 00:30:00 UTC,2445560.520833,28.7467,-95.2267,0206,26.3000
1983-08-14 01:00:00 UTC,2445560.541667,28.7467,-95.2267,0206,26.3000
1983-08-14 01:30:00 UTC,2445560.562500,28.7467,-95.2267,0206,26.3000
1983-08-14 02:00:00 UTC,2445560.583333,28.7467,-95.2267,0206,26.3000
1983-08-14 02:30:00 UTC,2445560.604167,28.7467,-95.2267,0206,26.3000
1983-08-14 03:00:00 UTC,2445560.625000,28.7467,-95.2267,0206,26.3000
1983-08-14 03:30:00 UTC,2445560.645833,28.7467,-95.2267,0206,26.3000
1983-08-14 04:00:00 UTC,2445560.666667,28.7467,-95.2267,0206,26.3000
1983-08-14 04:30:00 UTC,2445560.687500,28.7467,-95.2267,0206,26.4000
1983-08-14 05:00:00 UTC,2445560.708333,28.7467,-95.2267,0206,26.4000
1983-08-14 05:30:00 UTC,2445560.729167,28.7467,-95.2267,0206,26.4000
1983-08-14 06:00:00 UTC,2445560.750000,28.7467,-95.2267,0206,26.4000
1983-08-14 06:30:00 UTC,2445560.770833,28.7467,-95.2267,0206,26.4000
1983-08-14 07:00:00 UTC,2445560.791667,28.7467,-95.2267,0206,26.4000
1983-08-14 07:30:00 UTC,2445560.812500,28.7467,-95.2267,0206,26.4000
1983-08-14 08:00:00 UTC,2445560.833333,28.7467,-95.2267,0206,26.4000
1983-08-14 08:30:00 UTC,2445560.854167,28.7467,-95.2267,0206,26.4000
1983-08-14 09:00:00 UTC,2445560.875000,28.7467,-95.2267,0206,26.4000
1983-08-14 09:30:00 UTC,2445560.895833,28.7467,-95.2267,0206,26.4000
1983-08-14 10:00:00 UTC,2445560.916667,28.7467,-95.2267,0206,26.4000
1983-08-14 10:30:00 UTC,2445560.937500,28.7467,-95.2267,0206,26.4000
1983-08-14 11:00:00 UTC,2445560.958333,28.7467,-95.2267,0206,26.5000
1983-08-14 11:30:00 UTC,2445560.979167,28.7467,-95.2267,0206,26.5000
1983-08-14 12:00:00 UTC,2445561.000000,28.7467,-95.2267,0206,26.4000
1983-08-14 12:30:00 UTC,2445561.020833,28.7467,-95.2267,0206,26.4000
1983-08-14 13:00:00 UTC,2445561.041667,28.7467,-95.2267,0206,26.5000
1983-08-14 13:30:00 UTC,2445561.062500,28.7467,-95.2267,0206,26.5000
1983-08-14 14:00:00 UTC,2445561.083333,28.7467,-95.2267,0206,26.5000
1983-08-14 14:30:00 UTC,2445561.104167,28.7467,-95.2267,0206,26.5000
1983-08-14 15:00:00 UTC,2445561.125000,28.7467,-95.2267,0206,26.4000
1983-08-14 15:30:00 UTC,2445561.145833,28.7467,-95.2267,0206,26.3000
1983-08-14 16:00:00 UTC,2445561.166667,28.7467,-95.2267,0206,26.2000
1983-08-14 16:30:00 UTC,2445561.187500,28.7467,-95.2267,0206,26.1000
1983-08-14 17:00:00 UTC,2445561.208333,28.7467,-95.2267,0206,26.0000
1983-08-14 17:30:00 UTC,2445561.229167,28.7467,-95.2267,0206,26.0000
1983-08-14 18:00:00 UTC,2445561.250000,28.7467,-95.2267,0206,25.9000
1983-08-14 18:30:00 UTC,2445561.270833,28.7467,-95.2267,0206,25.9000
1983-08-14 19:00:00 UTC,2445561.291667,28.7467,-95.2267,0206,25.9000
1983-08-14 19:30:00 UTC,2445561.312500,28.7467,-95.2267,0206,25.9000
1983-08-14 20:00:00 UTC,2445561.333333,28.7467,-95.2267,0206,25.9000
1983-08-14 20:30:00 UTC,2445561.354167,28.7467,-95.2267,0206,25.8000
1983-08-14 21:00:00 UTC,2445561.375000,28.7467,-95.2267,0206,25.8000
1983-08-14 21:30:00 UTC,2445561.395833,28.7467,-95.2267,0206,25.9000
1983-08-14 22:00:00 UTC,2445561.416667,28.7467,-95.2267,0206,25.9000
1983-08-14 22:30:00 UTC,2445561.437500,28.7467,-95.2267,0206,26.0000
1983-08-14 23:00:00 UTC,2445561.458333,28.7467,-95.2267,0206,26.0000
1983-08-14 23:30:00 UTC,2445561.479167,28.7467,-95.2267,0206,26.0000
1983-08-15 00:00:00 UTC,2445561.500000,28.7467,-95.2267,0206,26.0000
1983-08-15 00:30:00 UTC,2445561.520833,28.7467,-95.2267,0206,26.0000
1983-08-15 01:00:00 UTC,2445561.541667,28.7467,-95.2267,0206,26.0000
1983-08-15 01:30:00 UTC,2445561.562500,28.7467,-95.2267,0206,26.0000
1983-08-15 02:00:00 UTC,2445561.583333,28.7467,-95.2267,0206,26.1000
1983-08-15 02:30:00 UTC,2445561.604167,28.7467,-95.2267,0206,26.1000
1983-08-15 03:00:00 UTC,2445561.625000,28.7467,-95.2267,0206,26.0000
1983-08-15 03:30:00 UTC,2445561.645833,28.7467,-95.2267,0206,25.9000
1983-08-15 04:00:00 UTC,2445561.666667,28.7467,-95.2267,0206,25.9000
1983-08-15 04:30:00 UTC,2445561.687500,28.7467,-95.2267,0206,25.8000
1983-08-15 05:00:00 UTC,2445561.708333,28.7467,-95.2267,0206,25.8000
1983-08-15 05:30:00 UTC,2445561.729167,28.7467,-95.2267,0206,25.7000
1983-08-15 06:00:00 UTC,2445561.750000,28.7467,-95.2267,0206,25.6000
1983-08-15 06:30:00 UTC,2445561.770833,28.7467,-95.2267,0206,25.6000
1983-08-15 07:00:00 UTC,2445561.791667,28.7467,-95.2267,0206,25.6000
1983-08-15 07:30:00 UTC,2445561.812500,28.7467,-95.2267,0206,25.6000
1983-08-15 08:00:00 UTC,2445561.833333,28.7467,-95.2267,0206,25.6000
1983-08-15 08:30:00 UTC,2445561.854167,28.7467,-95.2267,0206,25.6000
1983-08-15 09:00:00 UTC,2445561.875000,28.7467,-95.2267,0206,25.5000
1983-08-15 09:30:00 UTC,2445561.895833,28.7467,-95.2267,0206,25.5000
1983-08-15 10:00:00 UTC,2445561.916667,28.7467,-95.2267,0206,25.5000
1983-08-15 10:30:00 UTC,2445561.937500,28.7467,-95.2267,0206,25.5000
1983-08-15 11:00:00 UTC,2445561.958333,28.7467,-95.2267,0206,25.5000
1983-08-15 11:30:00 UTC,2445561.979167,28.7467,-95.2267,0206,25.5000
1983-08-15 12:00:00 UTC,2445562.000000,28.7467,-95.2267,0206,25.4000
1983-08-15 12:30:00 UTC,2445562.020833,28.7467,-95.2267,0206,25.4000
1983-08-15 13:00:00 UTC,2445562.041667,28.7467,-95.2267,0206,25.4000
1983-08-15 13:30:00 UTC,2445562.062500,28.7467,-95.2267,0206,25.3000
1983-08-15 14:00:00 UTC,2445562.083333,28.7467,-95.2267,0206,25.3000
1983-08-15 14:30:00 UTC,2445562.104167,28.7467,-95.2267,0206,25.3000
1983-08-15 15:00:00 UTC,2445562.125000,28.7467,-95.2267,0206,25.3000
1983-08-15 15:30:00 UTC,2445562.145833,28.7467,-95.2267,0206,25.2000
1983-08-15 16:00:00 UTC,2445562.166667,28.7467,-95.2267,0206,25.2000
1983-08-15 16:30:00 UTC,2445562.187500,28.7467,-95.2267,0206,25.2000
1983-08-15 17:00:00 UTC,2445562.208333,28.7467,-95.2267,0206,25.2000
1983-08-15 17:30:00 UTC,2445562.229167,28.7467,-95.2267,0206,25.2000
1983-08-15 18:00:00 UTC,2445562.250000,28.7467,-95.2267,0206,25.2000
1983-08-15 18:30:00 UTC,2445562.270833,28.7467,-95.2267,0206,25.2000
1983-08-15 19:00:00 UTC,2445562.291667,28.7467,-95.2267,0206,25.1000
1983-08-15 19:30:00 UTC,2445562.312500,28.7467,-95.2267,0206,25.1000
1983-08-15 20:00:00 UTC,2445562.333333,28.7467,-95.2267,0206,25.1000
1983-08-15 20:30:00 UTC,2445562.354167,28.7467,-95.2267,0206,25.1000
1983-08-15 21:00:00 UTC,2445562.375000,28.7467,-95.2267,0206,25.1000
1983-08-15 21:30:00 UTC,2445562.395833,28.7467,-95.2267,0206,25.1000
1983-08-15 22:00:00 UTC,2445562.416667,28.7467,-95.2267,0206,25.1000
1983-08-15 22:30:00 UTC,2445562.437500,28.7467,-95.2267,0206,25.1000
1983-08-15 23:00:00 UTC,2445562.458333,28.7467,-95.2267,0206,25.0000
1983-08-15 23:30:00 UTC,2445562.479167,28.7467,-95.2267,0206,25.0000
1983-08-16 00:00:00 UTC,2445562.500000,28.7467,-95.2267,0206,25.0000
1983-08-16 00:30:00 UTC,2445562.520833,28.7467,-95.2267,0206,25.0000
1983-08-16 01:00:00 UTC,2445562.541667,28.7467,-95.2267,0206,25.0000
1983-08-16 01:30:00 UTC,2445562.562500,28.7467,-95.2267,0206,25.0000
1983-08-16 02:00:00 UTC,2445562.583333,28.7467,-95.2267,0206,25.0000
1983-08-16 02:30:00 UTC,2445562.604167,28.7467,-95.2267,0206,25.0000
1983-08-16 03:00:00 UTC,2445562.625000,28.7467,-95.2267,0206,24.9000
1983-08-16 03:30:00 UTC,2445562.645833,28.7467,-95.2267,0206,24.9000
1983-08-16 04:00:00 UTC,2445562.666667,28.7467,-95.2267,0206,24.9000
1983-08-16 04:30:00 UTC,2445562.687500,28.7467,-95.2267,0206,24.9000
1983-08-16 05:00:00 UTC,2445562.708333,28.7467,-95.2267,0206,24.9000
1983-08-16 05:30:00 UTC,2445562.729167,28.7467,-95.2267,0206,24.9000
1983-08-16 06:00:00 UTC,2445562.750000,28.7467,-95.2267,0206,24.9000
1983-08-16 06:30:00 UTC,2445562.770833,28.7467,-95.2267,0206,24.9000
1983-08-16 07:00:00 UTC,2445562.791667,28.7467,-95.2267,0206,24.9000
1983-08-16 07:30:00 UTC,2445562.812500,28.7467,-95.2267,0206,24.9000
1983-08-16 08:00:00 UTC,2445562.833333,28.7467,-95.2267,0206,24.9000
1983-08-16 08:30:00 UTC,2445562.854167,28.7467,-95.2267,0206,24.9000
1983-08-16 09:00:00 UTC,2445562.875000,28.7467,-95.2267,0206,24.9000
1983-08-16 09:30:00 UTC,2445562.895833,28.7467,-95.2267,0206,24.9000
1983-08-16 10:00:00 UTC,2445562.916667,28.7467,-95.2267,0206,24.9000
1983-08-16 10:30:00 UTC,2445562.937500,28.7467,-95.2267,0206,24.9000
1983-08-16 11:00:00 UTC,2445562.958333,28.7467,-95.2267,0206,24.9000
1983-08-16 11:30:00 UTC,2445562.979167,28.7467,-95.2267,0206,24.9000
1983-08-16 12:00:00 UTC,2445563.000000,28.7467,-95.2267,0206,24.9000
1983-08-16 12:30:00 UTC,2445563.020833,28.7467,-95.2267,0206,24.9000
1983-08-16 13:00:00 UTC,2445563.041667,28.7467,-95.2267,0206,25.0000
1983-08-16 13:30:00 UTC,2445563.062500,28.7467,-95.2267,0206,25.0000
1983-08-16 14:00:00 UTC,2445563.083333,28.7467,-95.2267,0206,25.0000
1983-08-16 14:30:00 UTC,2445563.104167,28.7467,-95.2267,0206,25.0000
1983-08-16 15:00:00 UTC,2445563.125000,28.7467,-95.2267,0206,25.0000
1983-08-16 15:30:00 UTC,2445563.145833,28.7467,-95.2267,0206,25.0000
1983-08-16 16:00:00 UTC,2445563.166667,28.7467,-95.2267,0206,25.1000
1983-08-16 16:30:00 UTC,2445563.187500,28.7467,-95.2267,0206,25.1000
1983-08-16 17:00:00 UTC,2445563.208333,28.7467,-95.2267,0206,25.1000
1983-08-16 17:30:00 UTC,2445563.229167,28.7467,-95.2267,0206,25.1000
1983-08-16 18:00:00 UTC,2445563.250000,28.7467,-95.2267,0206,25.2000
1983-08-16 18:30:00 UTC,2445563.270833,28.7467,-95.2267,0206,25.2000
1983-08-16 19:00:00 UTC,2445563.291667,28.7467,-95.2267,0206,25.2000
1983-08-16 19:30:00 UTC,2445563.312500,28.7467,-95.2267,0206,25.3000
1983-08-16 20:00:00 UTC,2445563.333333,28.7467,-95.2267,0206,25.3000
1983-08-16 20:30:00 UTC,2445563.354167,28.7467,-95.2267,0206,25.4000
1983-08-16 21:00:00 UTC,2445563.375000,28.7467,-95.2267,0206,25.4000
1983-08-16 21:30:00 UTC,2445563.395833,28.7467,-95.2267,0206,25.5000
1983-08-16 22:00:00 UTC,2445563.416667,28.7467,-95.2267,0206,25.5000
1983-08-16 22:30:00 UTC,2445563.437500,28.7467,-95.2267,0206,25.5000
1983-08-16 23:00:00 UTC,2445563.458333,28.7467,-95.2267,0206,25.6000
1983-08-16 23:30:00 UTC,2445563.479167,28.7467,-95.2267,0206,25.6000
1983-08-17 00:00:00 UTC,2445563.500000,28.7467,-95.2267,0206,25.7000
1983-08-17 00:30:00 UTC,2445563.520833,28.7467,-95.2267,0206,25.8000
1983-08-17 01:00:00 UTC,2445563.541667,28.7467,-95.2267,0206,25.9000
1983-08-17 01:30:00 UTC,2445563.562500,28.7467,-95.2267,0206,25.9000
1983-08-17 02:00:00 UTC,2445563.583333,28.7467,-95.2267,0206,26.0000
1983-08-17 02:30:00 UTC,2445563.604167,28.7467,-95.2267,0206,26.1000
1983-08-17 03:00:00 UTC,2445563.625000,28.7467,-95.2267,0206,26.2000
1983-08-17 03:30:00 UTC,2445563.645833,28.7467,-95.2267,0206,26.3000
1983-08-17 04:00:00 UTC,2445563.666667,28.7467,-95.2267,0206,26.4000
1983-08-17 04:30:00 UTC,2445563.687500,28.7467,-95.2267,0206,26.5000
1983-08-17 05:00:00 UTC,2445563.708333,28.7467,-95.2267,0206,26.6000
1983-08-17 05:30:00 UTC,2445563.729167,28.7467,-95.2267,0206,26.6000
1983-08-17 06:00:00 UTC,2445563.750000,28.7467,-95.2267,0206,26.7000
1983-08-17 06:30:00 UTC,2445563.770833,28.7467,-95.2267,0206,26.7000
1983-08-17 07:00:00 UTC,2445563.791667,28.7467,-95.2267,0206,26.7000
1983-08-17 07:30:00 UTC,2445563.812500,28.7467,-95.2267,0206,26.7000
1983-08-17 08:00:00 UTC,2445563.833333,28.7467,-95.2267,0206,26.8000
1983-08-17 08:30:00 UTC,2445563.854167,28.7467,-95.2267,0206,26.8000
1983-08-17 09:00:00 UTC,2445563.875000,28.7467,-95.2267,0206,26.9000
1983-08-17 09:30:00 UTC,2445563.895833,28.7467,-95.2267,0206,26.9000
1983-08-17 10:00:00 UTC,2445563.916667,28.7467,-95.2267,0206,27.0000
1983-08-17 10:30:00 UTC,2445563.937500,28.7467,-95.2267,0206,27.0000
1983-08-17 11:00:00 UTC,2445563.958333,28.7467,-95.2267,0206,27.1000
1983-08-17 11:30:00 UTC,2445563.979167,28.7467,-95.2267,0206,27.1000
1983-08-17 12:00:00 UTC,2445564.000000,28.7467,-95.2267,0206,27.2000
1983-08-17 12:30:00 UTC,2445564.020833,28.7467,-95.2267,0206,27.3000
1983-08-17 13:00:00 UTC,2445564.041667,28.7467,-95.2267,0206,27.5000
1983-08-17 13:30:00 UTC,2445564.062500,28.7467,-95.2267,0206,27.7000
1983-08-17 14:00:00 UTC,2445564.083333,28.7467,-95.2267,0206,28.0000
1983-08-17 14:30:00 UTC,2445564.104167,28.7467,-95.2267,0206,28.2000
1983-08-17 15:00:00 UTC,2445564.125000,28.7467,-95.2267,0206,28.4000
1983-08-17 15:30:00 UTC,2445564.145833,28.7467,-95.2267,0206,28.6000
1983-08-17 16:00:00 UTC,2445564.166667,28.7467,-95.2267,0206,28.6000
1983-08-17 16:30:00 UTC,2445564.187500,28.7467,-95.2267,0206,28.7000
1983-08-17 17:00:00 UTC,2445564.208333,28.7467,-95.2267,0206,28.6000
1983-08-17 17:30:00 UTC,2445564.229167,28.7467,-95.2267,0206,28.5000
1983-08-17 18:00:00 UTC,2445564.250000,28.7467,-95.2267,0206,28.5000
1983-08-17 18:30:00 UTC,2445564.270833,28.7467,-95.2267,0206,28.5000
1983-08-17 19:00:00 UTC,2445564.291667,28.7467,-95.2267,0206,28.5000
1983-08-17 19:30:00 UTC,2445564.312500,28.7467,-95.2267,0206,28.6000
1983-08-17 20:00:00 UTC,2445564.333333,28.7467,-95.2267,0206,28.6000
1983-08-17 20:30:00 UTC,2445564.354167,28.7467,-95.2267,0206,28.5000
1983-08-17 21:00:00 UTC,2445564.375000,28.7467,-95.2267,0206,28.5000
1983-08-17 21:30:00 UTC,2445564.395833,28.7467,-95.2267,0206,28.5000
1983-08-17 22:00:00 UTC,2445564.416667,28.7467,-95.2267,0206,28.5000